{"data":{"norad_id":63412,"intl_designator":"2025-065P","name":"STARLINK-33645","alt_names":[],"object_type":"PAYLOAD","status":"ACTIVE","operator":null,"country":"US","launch_date":"2025-03-31","launch_site_code":"AFETR","launch_vehicle":null,"mission":null,"orbit_class":"UNKNOWN","rcs_meters":null,"size_class":null,"mass_kg":null,"dimensions":null,"purposes":["comms"],"wikipedia_slug":null,"has_3d_model":false,"image_url":null,"decayed_at":null,"tle_current":{"epoch":"2026-05-25T00:09:49.786272Z","epoch_age_seconds":64712,"freshness":"FRESH","line1":"1 63412U 25065P   26145.00682623  .00015438  00000+0  56913-3 0  9996","line2":"2 63412  43.0020  39.2976 0000910 272.8589  87.2158 15.27592147 64479","mean_motion":15.27592147,"eccentricity":9.1e-5,"inclination_deg":43.002,"raan_deg":39.2976,"arg_perigee_deg":272.8589,"mean_anomaly_deg":87.2158,"bstar":0.00056913,"rev_number":6447,"period_min":94.265999129937,"perigee_km":482.38835916795,"apogee_km":483.63708841768,"semimajor_km":6861.1497237928,"source":"CELESTRAK","updated_at":"2026-05-25T13:38:19.971120Z"}}}